Temp
60 60 60 60 59 59 59 59 59 60 60 60 60 60 60 60 60 54 56 64 64 70 69 67 67 66 63 58 60 58 46 39 44 49 54 61 59 66 73 71 73 76 74 78 82
60 60 60 59 59 59 59 59 59 59 59 60 60 60 60 60 53 55 68 71 71 71 67 64 63 63 57 55 56 52 42 46 55 56 57 60 58 66 66 68 68 73 76 78 81
60 60 60 59 59 58 59 59 59 59 59 59 59 59 60 58 51 61 73 72 72 70 65 64 63 60 51 53 53 49 46 53 58 61 60 58 62 66 63 60 67 68 73 74 74
59 60 59 59 58 58 59 59 59 59 59 59 59 59 60 54 49 66 73 72 72 66 66 64 61 53 49 49 53 47 57 56 58 62 59 58 63 62 63 62 71 72 73 71 71
59 59 58 58 58 58 58 58 58 58 58 58 59 60 55 51 58 70 74 72 67 65 63 59 55 51 45 50 55 47 53 58 59 58 56 60 58 60 61 67 70 72 73 72 70
58 58 58 58 58 58 58 58 57 57 58 58 59 60 53 52 69 71 69 66 66 61 59 58 56 57 51 49 48 54 53 55 56 56 55 57 58 57 63 68 69 68 68 71 71
58 58 58 58 58 58 58 57 57 57 58 59 60 60 53 58 70 68 68 62 65 67 63 66 64 60 54 53 54 56 49 53 54 54 55 56 53 55 64 65 64 67 69 68 70
58 58 57 57 58 58 58 57 57 58 58 60 62 55 51 67 66 65 63 67 69 68 68 71 65 57 53 55 55 49 46 38 50 55 59 54 45 58 64 60 62 65 68 70 69
58 57 57 57 58 58 58 57 59 59 60 61 54 52 54 69 67 73 68 68 69 69 68 77 63 55 54 46 41 42 36 39 46 53 54 50 50 58 63 61 59 61 64 67 69
58 57 57 57 57 57 56 57 60 59 60 63 64 53 62 63 68 74 73 74 67 64 63 59 52 47 43 41 32 39 37 41 44 53 55 50 50 58 59 59 58 59 61 63 64
58 57 56 57 57 56 54 58 55 54 58 52 57 57 61 68 72 69 73 68 65 59 48 51 44 40 46 47 48 46 44 43 49 55 48 50 50 55 56 55 55 56 58 62 65
57 57 57 56 56 56 52 57 57 59 51 60 62 62 66 65 61 67 72 59 55 49 49 46 40 51 52 51 49 47 43 43 50 53 49 50 50 56 55 54 58 60 62 59 61
56 56 56 56 55 56 55 60 62 60 48 58 64 64 64 63 60 62 67 61 55 48 49 43 49 55 53 49 48 47 43 45 45 52 50 46 45 49 56 56 60 58 59 58 60
57 56 56 54 58 53 58 63 60 60 42 54 58 63 66 62 57 70 69 61 53 48 48 45 53 51 49 47 48 41 51 50 48 43 36 46 33 48 50 49 52 57 59 60 62
56 56 55 54 52 54 63 58 57 58 30 57 58 67 63 56 59 60 68 61 50 51 47 45 47 47 45 47 51 44 51 47 46 41 36 37 31 45 45 48 53 55 55 56 58
56 56 55 53 48 55 58 56 58 41 31 49 56 54 52 55 56 59 58 60 57 50 49 47 55 51 49 52 51 53 46 43 38 34 26 37 34 40 41 45 48 52 54 57 56
55 55 52 57 58 55 55 55 40 31 50 46 46 51 48 48 51 53 50 45 40 35 35 43 46 51 53 45 49 47 36 25 24 23 27 38 32 41 48 52 54 56 54 55 55
54 52 53 59 57 55 53 46 32 45 44 52 50 49 45 48 48 48 45 39 46 42 34 30 32 46 52 45 39 40 36 24 20 23 27 40 30 39 50 54 56 55 53 54 54
52 51 57 60 60 55 48 32 36 43 50 48 48 42 42 48 46 44 41 40 44 43 32 31 35 50 50 50 46 38 32 40 32 35 27 34 39 46 51 52 52 51 52 51 51
44 47 56 64 57 53 41 40 43 53 54 51 39 44 37 41 40 39 40 47 44 47 45 38 30 46 48 50 50 45 44 27 29 23 22 29 33 37 45 47 48 48 47 49 51
46 49 61 60 56 46 34 38 48 57 55 49 44 41 42 39 39 37 40 46 48 48 44 39 37 39 44 39 39 41 36 37 36 33 27 25 30 46 45 45 45 47 50 50 50
42 45 59 58 43 36 37 45 51 54 55 53 49 46 42 41 37 38 38 44 51 48 41 44 37 32 36 46 49 45 41 39 29 28 32 28 30 52 53 49 46 44 48 50 51
38 40 55 55 35 35 41 47 51 51 51 49 47 48 44 39 31 40 42 50 50 46 43 42 35 29 34 38 44 39 42 39 36 34 29 26 30 52 53 52 49 44 47 49 51
42 39 44 43 42 38 37 40 44 54 51 51 49 46 42 37 40 37 41 47 49 47 53 48 35 34 29 35 40 35 37 40 35 29 31 31 33 41 45 44 46 44 45 46 47
42 39 41 35 38 38 38 40 43 42 49 48 44 43 37 25 34 36 41 43 46 49 43 42 33 34 37 40 40 38 37 39 34 35 29 32 30 36 42 41 40 43 46 46 47
43 43 40 38 40 39 40 38 41 44 43 42 39 43 41 31 35 35 39 39 35 40 40 42 33 37 34 39 39 35 38 38 35 33 32 34 32 43 42 41 40 42 43 43 44
45 45 41 39 37 36 38 40 42 44 46 48 43 39 37 40 44 47 46 45 42 40 38 38 33 31 31 35 34 27 28 32 32 35 33 27 34 36 35 37 39 40 40 40 41
MSLP
1018.10 1017.71 1017.30 1016.86 1016.48 1016.10 1015.83 1015.68 1015.48 1015.16 1014.89 1014.48 1013.98 1013.63 1013.17 1012.83 1012.46 1012.25 1011.67 1010.71 1010.68 1010.45 1010.44 1010.24 1010.15 1010.34 1010.61 1010.87 1010.98 1011.49 1012.71 1013.03 1012.07 1011.15 1009.93 1008.71 1008.38 1007.44 1006.83 1006.45 1005.99 1005.46 1005.44 1005.12 1004.47
1018.02 1017.45 1017.11 1016.72 1016.37 1016.07 1015.75 1015.36 1015.13 1014.93 1014.82 1014.69 1014.41 1013.69 1013.26 1013.10 1012.99 1012.03 1010.38 1010.15 1010.41 1010.45 1010.36 1010.51 1010.53 1010.56 1011.01 1011.21 1011.33 1011.87 1012.73 1012.44 1011.55 1010.75 1009.99 1009.06 1008.61 1007.79 1007.40 1006.78 1006.27 1005.52 1005.39 1005.10 1004.63
1018.13 1017.46 1016.90 1016.42 1016.14 1015.85 1015.40 1015.04 1014.78 1014.56 1014.35 1014.30 1014.23 1013.96 1013.74 1013.70 1013.26 1011.10 1010.05 1010.33 1010.52 1010.68 1010.81 1010.85 1010.81 1010.82 1011.16 1011.34 1011.35 1011.75 1012.08 1011.60 1010.99 1010.43 1010.13 1009.57 1008.56 1007.81 1007.26 1006.95 1006.50 1006.03 1005.00 1005.46 1005.29
1018.21 1017.53 1016.96 1016.46 1015.89 1015.35 1015.06 1014.87 1014.61 1014.34 1014.09 1013.82 1013.66 1013.66 1013.41 1013.55 1012.47 1010.39 1010.23 1010.44 1010.68 1010.90 1010.93 1011.01 1010.92 1011.17 1011.54 1011.78 1011.66 1011.82 1011.50 1011.42 1011.13 1010.46 1010.28 1009.78 1008.80 1008.03 1007.38 1006.98 1006.45 1006.04 1005.51 1005.19 1005.79
1018.01 1017.57 1017.09 1016.54 1016.02 1015.47 1014.94 1014.50 1014.18 1013.89 1013.67 1013.56 1013.63 1013.35 1012.98 1012.49 1011.11 1009.92 1010.28 1010.64 1010.89 1011.05 1011.11 1011.14 1011.34 1011.60 1011.94 1012.11 1011.91 1011.75 1011.62 1011.34 1010.94 1010.72 1010.20 1009.49 1008.99 1008.23 1007.43 1006.67 1006.26 1005.95 1005.64 1004.98 1004.86
1017.86 1017.28 1016.85 1016.44 1016.01 1015.58 1015.16 1014.73 1014.32 1013.97 1013.72 1013.54 1013.50 1013.36 1012.97 1011.68 1010.10 1010.10 1010.54 1010.93 1011.00 1011.05 1010.96 1010.99 1011.00 1011.14 1011.72 1012.08 1012.31 1011.96 1011.92 1011.51 1010.95 1010.46 1009.88 1009.33 1008.64 1008.30 1007.30 1006.36 1006.05 1005.94 1005.69 1005.15 1004.63
1017.71 1017.13 1016.55 1016.05 1015.57 1015.12 1014.77 1014.55 1014.24 1014.11 1013.94 1013.74 1013.62 1013.55 1012.92 1011.30 1010.42 1010.36 1010.64 1010.80 1010.75 1010.89 1010.85 1010.51 1010.59 1011.09 1011.61 1012.03 1011.91 1012.05 1012.03 1011.43 1010.59 1009.96 1009.52 1008.97 1008.44 1008.20 1007.22 1006.67 1006.28 1005.56 1005.20 1005.08 1004.64
1017.68 1017.05 1016.38 1015.78 1015.16 1014.46 1014.00 1013.73 1013.36 1013.47 1013.62 1013.70 1013.63 1013.60 1012.45 1010.68 1010.61 1010.77 1010.91 1010.75 1010.44 1010.44 1010.67 1010.33 1010.42 1011.09 1011.67 1011.99 1012.32 1012.78 1012.57 1012.26 1010.84 1010.15 1009.28 1009.12 1008.23 1007.55 1006.88 1006.81 1006.44 1005.64 1005.09 1004.81 1004.50
1017.52 1016.87 1016.21 1015.54 1014.89 1014.05 1013.34 1013.22 1012.79 1012.95 1013.40 1013.50 1013.64 1013.18 1011.62 1010.50 1010.60 1010.03 1010.50 1010.56 1010.11 1010.17 1010.30 1010.28 1010.76 1011.63 1012.08 1012.84 1013.66 1013.88 1013.66 1012.64 1011.18 1010.15 1009.58 1009.24 1007.96 1007.37 1006.80 1006.71 1006.42 1005.96 1005.33 1004.71 1004.27
1017.41 1016.65 1015.92 1015.30 1014.55 1013.79 1013.08 1013.08 1012.89 1013.08 1013.46 1013.36 1013.02 1012.97 1011.44 1010.99 1010.55 1010.00 1009.88 1009.90 1010.13 1010.39 1010.77 1010.98 1011.88 1012.50 1013.19 1013.83 1014.26 1014.05 1013.77 1012.84 1011.61 1010.20 1009.68 1009.02 1007.79 1007.29 1006.78 1006.56 1006.32 1005.97 1005.28 1004.65 1004.03
1017.43 1016.71 1015.93 1015.17 1014.55 1013.91 1013.14 1012.93 1013.56 1013.32 1013.05 1013.33 1013.09 1012.68 1011.93 1011.07 1010.32 1009.95 1009.65 1009.87 1010.35 1011.02 1011.64 1011.93 1012.95 1013.14 1012.99 1013.08 1013.20 1013.25 1012.97 1012.25 1010.96 1010.07 1009.79 1008.78 1007.85 1006.55 1006.39 1006.43 1006.10 1005.63 1005.27 1004.36 1003.74
1017.33 1016.39 1015.70 1014.92 1014.28 1013.87 1013.80 1013.95 1013.79 1013.73 1013.45 1012.72 1012.57 1012.34 1011.68 1011.37 1011.07 1010.10 1009.80 1010.55 1010.89 1011.47 1012.02 1012.86 1012.98 1012.36 1012.36 1012.48 1012.51 1012.55 1012.33 1011.49 1009.97 1009.69 1009.41 1008.78 1007.06 1005.99 1006.25 1006.01 1005.34 1004.85 1004.35 1003.93 1003.46
1017.24 1016.40 1015.38 1014.74 1014.02 1013.89 1014.28 1013.81 1013.45 1013.52 1013.86 1012.73 1012.23 1011.97 1011.64 1011.59 1011.08 1010.73 1010.52 1010.40 1010.76 1011.49 1011.97 1012.53 1012.01 1011.85 1012.16 1012.15 1012.08 1011.98 1011.78 1011.00 1010.46 1009.53 1009.07 1008.89 1006.59 1006.30 1005.37 1005.13 1004.50 1004.01 1003.67 1003.34 1003.09
1017.07 1016.48 1015.56 1014.63 1014.30 1014.85 1014.08 1013.39 1013.38 1013.38 1013.85 1013.41 1012.64 1012.22 1011.93 1011.48 1011.41 1011.17 1010.84 1010.86 1010.99 1011.40 1011.83 1012.12 1011.68 1011.89 1011.85 1011.91 1011.73 1011.55 1011.20 1010.75 1010.55 1010.39 1009.46 1009.44 1007.60 1004.17 1004.93 1004.64 1004.44 1003.81 1003.29 1002.81 1002.54
1017.03 1016.35 1015.67 1015.00 1015.28 1014.85 1013.77 1013.40 1013.24 1013.50 1014.67 1014.17 1013.30 1012.65 1012.78 1013.28 1012.76 1011.98 1011.59 1010.99 1011.67 1011.98 1012.22 1012.34 1011.99 1011.96 1011.89 1011.51 1011.37 1011.32 1011.08 1010.96 1010.75 1010.51 1010.08 1010.10 1009.95 1002.10 1004.86 1004.58 1003.91 1003.21 1002.82 1002.61 1002.24
1016.79 1016.16 1015.78 1015.44 1015.55 1014.23 1013.58 1013.40 1013.55 1014.62 1015.32 1014.91 1014.21 1013.85 1013.88 1013.53 1013.26 1012.84 1012.48 1012.20 1012.19 1012.55 1012.63 1012.51 1011.83 1011.65 1011.17 1011.21 1011.19 1011.45 1011.37 1011.02 1010.99 1010.99 1010.37 1009.46 1009.29 1002.52 1005.03 1004.30 1003.54 1002.89 1002.65 1002.28 1001.94
1016.59 1015.73 1015.41 1015.10 1014.47 1013.75 1013.45 1014.16 1015.19 1015.77 1016.30 1015.82 1015.21 1014.88 1014.73 1014.57 1014.13 1013.95 1013.78 1013.87 1014.07 1014.12 1013.92 1013.25 1012.12 1011.46 1011.38 1011.60 1011.38 1011.62 1012.00 1012.21 1011.80 1011.74 1009.95 1008.60 1008.18 1004.55 1004.16 1003.73 1003.07 1002.65 1002.36 1002.31 1002.22
1016.41 1015.50 1015.14 1014.28 1013.60 1013.61 1014.00 1015.13 1016.31 1016.78 1016.43 1015.80 1015.48 1015.31 1015.37 1015.18 1015.00 1014.86 1014.73 1015.04 1015.17 1015.39 1015.30 1014.66 1013.01 1012.19 1011.80 1012.28 1012.41 1012.30 1012.81 1013.44 1012.62 1011.81 1010.58 1009.23 1006.67 1004.19 1003.38 1002.73 1002.01 1001.95 1002.09 1002.31 1002.46
1016.55 1015.68 1015.08 1013.89 1013.48 1013.66 1014.91 1016.72 1017.16 1016.75 1016.13 1015.88 1015.77 1015.76 1015.83 1015.77 1015.76 1015.71 1015.54 1015.53 1015.77 1015.82 1016.27 1015.60 1013.91 1012.42 1012.17 1011.80 1012.24 1012.27 1012.72 1012.57 1012.71 1011.71 1010.54 1008.36 1005.54 1003.97 1002.90 1002.26 1001.92 1002.10 1002.42 1002.63 1002.41
1018.12 1017.22 1015.66 1014.13 1013.78 1014.31 1016.06 1017.34 1017.11 1016.25 1015.60 1015.61 1016.11 1016.16 1016.27 1016.13 1016.34 1016.20 1015.77 1015.41 1015.76 1015.83 1015.89 1016.03 1014.39 1012.60 1012.05 1011.92 1011.02 1011.83 1012.27 1012.71 1012.76 1011.73 1009.51 1007.00 1005.57 1004.05 1002.97 1002.36 1002.36 1002.76 1003.01 1002.70 1002.22
1018.36 1017.52 1015.53 1014.55 1014.45 1016.29 1018.17 1017.95 1016.85 1015.73 1015.23 1015.41 1015.75 1016.14 1016.49 1016.62 1016.82 1016.69 1016.13 1015.34 1015.33 1015.47 1015.73 1015.81 1015.56 1013.42 1012.93 1011.99 1011.28 1011.70 1012.07 1012.52 1012.37 1011.81 1009.93 1007.57 1005.31 1004.38 1003.61 1003.30 1003.28 1003.29 1003.21 1003.04 1002.64
1020.09 1018.80 1016.09 1015.13 1016.75 1018.81 1019.23 1018.38 1017.07 1015.97 1015.35 1015.27 1015.49 1015.95 1016.37 1016.71 1016.85 1016.89 1016.18 1015.35 1014.80 1015.14 1015.47 1015.58 1015.34 1013.83 1012.68 1010.74 1010.67 1011.04 1011.21 1012.19 1011.92 1011.05 1010.12 1008.59 1004.40 1003.72 1003.45 1003.79 1004.11 1004.01 1003.95 1003.39 1002.61
1021.82 1020.24 1017.35 1016.77 1019.11 1020.12 1019.52 1018.58 1017.49 1016.50 1015.97 1015.67 1015.91 1016.07 1016.28 1016.96 1017.22 1016.63 1015.82 1014.75 1014.63 1015.05 1014.86 1015.26 1015.04 1013.96 1012.07 1011.12 1010.83 1011.10 1011.06 1011.49 1011.46 1010.92 1009.43 1008.53 1005.22 1003.48 1003.37 1003.65 1004.21 1004.23 1003.92 1003.64 1002.87
1022.19 1021.40 1020.03 1020.03 1020.71 1020.89 1020.57 1019.42 1018.16 1016.88 1016.44 1016.37 1016.24 1016.26 1016.77 1017.01 1017.04 1016.36 1015.48 1014.77 1014.46 1014.42 1014.40 1014.64 1014.37 1014.13 1013.23 1011.65 1011.20 1011.06 1010.89 1010.95 1011.13 1010.12 1008.73 1007.90 1005.55 1005.35 1004.81 1004.65 1004.30 1004.18 1004.11 1003.50 1003.07
1022.52 1022.67 1022.30 1021.80 1021.50 1021.38 1020.95 1019.77 1018.81 1017.99 1017.23 1017.04 1016.87 1017.21 1017.60 1017.81 1016.94 1016.07 1015.22 1014.81 1014.41 1013.53 1013.90 1014.06 1013.87 1013.58 1012.64 1011.75 1011.13 1010.35 1009.95 1010.09 1010.32 1009.74 1009.20 1007.95 1007.44 1006.31 1005.78 1005.34 1005.17 1004.77 1003.93 1003.36 1002.78
1022.84 1022.85 1022.82 1022.42 1021.98 1021.46 1020.67 1019.76 1019.36 1018.50 1018.17 1017.63 1017.61 1017.38 1017.42 1017.48 1016.93 1015.87 1015.51 1014.90 1014.91 1013.98 1014.05 1014.17 1013.85 1013.26 1012.00 1011.19 1010.64 1009.81 1009.45 1009.89 1010.35 1010.36 1009.77 1008.68 1007.19 1006.92 1006.44 1006.08 1005.64 1004.90 1004.14 1003.25 1002.42
1023.20 1022.99 1023.23 1022.57 1022.04 1021.72 1020.67 1020.06 1019.63 1019.32 1017.96 1017.52 1017.61 1017.57 1017.09 1016.50 1015.90 1014.80 1014.44 1013.86 1014.40 1014.33 1014.38 1014.40 1014.20 1013.72 1011.60 1011.09 1010.38 1009.79 1010.11 1010.64 1010.81 1010.42 1010.12 1008.76 1007.98 1007.81 1007.20 1006.50 1005.53 1004.50 1003.71 1002.77 1001.80
Wind_Speed
20 19 18 17 16 16 15 13 12 12 11 12 12 14 15 16 12 2 3 5 2 3 3 5 1 2 3 2 1 3 4 2 4 2 6 7 6 1 3 6 5 4 3 5 9
22 21 19 18 16 15 14 14 13 12 10 8 9 11 13 13 5 4 7 4 5 4 5 6 5 6 3 0 2 5 4 8 7 4 7 9 6 15 5 11 3 7 1 2 8
22 21 20 18 17 15 15 14 13 13 12 10 9 9 9 3 2 3 4 5 0 5 3 2 2 3 2 1 2 2 4 5 6 8 6 6 11 8 6 5 6 8 12 2 4
23 21 20 18 17 17 16 14 13 12 12 12 12 9 9 4 4 3 8 6 2 3 4 3 6 4 3 4 3 3 6 1 6 6 6 6 7 8 6 5 6 8 9 3 2
23 22 20 18 15 14 14 15 16 15 14 12 10 11 3 3 3 2 11 7 4 3 2 2 3 2 2 4 8 2 3 8 8 9 7 7 7 9 9 10 8 9 8 11 7
23 22 21 18 14 12 11 11 13 14 14 12 9 6 3 5 2 4 6 3 2 1 2 1 1 2 2 2 2 4 4 9 7 9 6 7 6 2 8 10 11 6 9 10 11
24 23 22 20 17 14 11 10 11 12 11 9 6 2 3 5 4 3 7 3 3 3 2 3 1 4 1 7 1 4 8 9 7 5 5 3 6 5 8 9 10 13 13 8 11
24 23 23 21 19 17 16 14 12 10 9 7 5 2 3 3 3 2 2 6 5 5 4 8 1 1 3 2 8 6 4 5 7 6 8 4 9 10 10 5 11 13 13 13 11
25 24 23 23 20 20 18 15 3 4 5 6 2 1 3 1 2 6 7 5 3 3 4 1 3 1 4 3 6 5 6 6 11 4 7 2 16 6 9 8 8 9 12 14 14
26 26 24 22 22 21 20 3 3 7 2 3 2 3 4 5 5 5 7 6 3 2 5 4 5 2 3 4 5 9 7 8 12 11 15 14 18 13 7 6 9 9 10 11 13
27 25 24 22 20 17 10 3 7 6 6 1 4 2 4 8 5 2 5 1 2 4 3 3 3 6 12 7 8 7 9 13 14 15 6 15 15 19 10 7 9 10 10 13 17
27 27 25 23 20 11 1 5 3 5 6 3 3 4 6 2 5 6 3 1 2 6 2 4 6 11 6 7 8 6 9 14 18 10 5 13 23 20 8 8 15 18 17 14 13
28 26 26 23 20 4 2 3 5 5 3 7 1 2 4 1 4 5 6 4 9 4 8 8 9 2 5 8 12 12 9 14 19 16 5 6 22 11 13 11 14 12 13 10 13
29 25 23 25 5 4 5 3 6 2 5 9 8 7 10 8 2 5 8 5 3 6 5 6 4 3 8 6 8 11 12 14 13 11 14 7 19 26 10 7 7 14 15 16 16
30 25 18 7 1 2 5 7 3 5 5 9 5 4 10 8 7 10 9 7 4 5 1 8 3 7 8 8 5 6 10 7 12 12 7 3 2 23 3 15 19 15 9 11 13
31 26 14 3 1 6 7 5 5 8 1 6 4 7 6 7 4 5 6 6 2 4 4 5 6 6 6 3 1 7 5 8 2 1 7 8 12 29 6 8 6 7 4 4 5
32 26 7 1 5 2 4 5 7 8 4 6 5 6 3 8 5 6 11 7 5 7 6 7 4 3 5 5 7 13 6 5 4 1 9 4 8 19 6 12 17 17 7 6 5
33 19 3 4 6 5 4 7 9 3 2 5 5 7 3 7 6 6 8 5 5 2 4 5 7 5 9 4 6 11 5 4 6 4 7 8 10 10 10 13 14 8 7 5 6
24 5 5 5 6 3 8 8 6 4 4 3 7 2 3 5 4 6 5 1 2 2 2 5 6 12 21 13 2 3 4 6 10 15 11 10 12 10 11 14 7 6 3 5 6
4 4 6 14 5 7 8 3 3 4 3 2 1 1 5 6 4 6 4 1 5 5 5 4 12 6 3 10 9 7 3 4 3 6 8 5 7 8 10 8 3 6 7 8 8
5 5 6 11 5 8 5 2 4 3 3 4 4 4 6 5 2 3 5 7 4 3 6 3 7 7 9 5 7 4 2 5 4 5 6 9 3 6 7 8 8 8 11 10 9
4 3 6 6 7 2 2 4 6 4 3 3 3 4 5 4 4 5 6 7 5 2 5 4 5 8 13 23 16 12 10 4 4 5 6 6 15 17 21 6 7 7 9 11 9
2 3 5 6 5 4 6 5 3 4 5 2 3 4 2 2 3 5 8 8 7 6 4 6 4 6 7 5 5 2 4 9 7 4 17 15 10 14 15 15 5 6 10 14 12
3 5 6 6 2 3 4 5 5 6 4 6 8 2 5 4 7 8 10 5 2 7 16 6 5 10 12 18 12 20 19 18 15 8 15 14 25 18 15 13 17 14 15 10 10
3 2 2 5 3 2 4 3 4 4 4 6 4 5 5 4 6 7 7 11 9 15 4 6 7 9 17 21 22 24 27 23 19 14 8 9 18 19 17 14 12 15 16 14 17
2 3 4 4 4 4 2 1 2 5 4 6 4 11 6 7 10 17 15 12 6 5 5 1 5 5 18 19 17 22 20 10 7 9 13 17 24 16 17 15 16 16 18 19 20
3 3 3 5 3 1 4 1 6 7 8 5 5 7 6 9 9 20 17 19 11 7 4 3 2 3 9 9 16 6 2 4 8 12 15 18 18 10 18 19 18 19 19 21 22
Wind_Direction
351 349 345 342 340 337 333 329 323 320 323 328 335 329 330 335 335 91 272 214 178 239 306 294 70 63 85 7 184 104 60 233 254 192 273 304 336 242 270 259 353 278 128 293 29
353 350 348 344 339 335 330 326 324 322 321 324 327 334 331 335 356 321 258 240 215 8 15 25 15 10 47 285 5 108 137 217 210 249 282 292 297 298 314 315 292 299 209 48 55
354 352 350 345 339 335 331 329 324 320 321 322 336 329 309 320 350 269 220 217 185 35 37 19 359 29 29 42 242 121 192 233 272 254 267 265 298 273 281 289 252 286 298 96 98
353 353 351 347 340 334 329 325 322 316 316 322 334 333 311 161 104 240 156 179 108 35 9 6 13 36 357 337 333 295 250 323 301 326 319 295 300 302 261 236 267 272 284 276 147
347 351 352 348 343 334 325 321 318 316 316 321 328 333 357 34 247 164 165 165 146 159 206 87 70 88 10 312 336 214 324 327 285 285 265 273 257 257 286 279 259 263 269 290 282
346 347 350 350 344 333 318 305 298 297 298 301 312 330 32 74 274 128 124 111 303 147 329 164 172 225 127 285 160 288 278 280 274 267 248 254 259 278 286 286 305 260 248 267 278
345 348 348 347 342 331 312 282 255 255 260 264 274 284 51 195 2 163 135 199 190 204 306 257 163 34 72 323 305 278 325 321 291 284 282 290 312 267 259 303 299 304 307 268 267
344 347 346 345 340 326 319 311 288 246 229 230 209 180 233 240 122 114 132 297 263 216 224 264 42 141 170 294 357 351 16 347 279 324 276 113 280 280 288 331 310 309 312 311 292
345 347 345 344 338 328 325 326 336 189 182 178 154 188 329 302 179 249 151 230 193 183 209 288 94 136 29 59 358 354 270 278 304 256 270 213 291 261 296 303 292 300 306 303 302
345 346 343 341 337 332 328 318 93 115 162 199 253 21 344 308 297 291 206 230 241 353 2 44 46 54 26 79 265 277 273 267 276 292 296 283 273 274 261 263 269 282 283 292 298
342 344 339 337 333 332 346 35 18 351 57 8 265 258 280 290 271 277 240 252 67 52 251 349 56 258 257 228 225 251 270 263 275 280 269 274 273 283 264 280 280 259 268 275 277
343 341 340 335 333 335 36 60 252 202 331 293 264 270 260 195 323 310 89 194 165 237 107 353 252 257 243 251 252 253 267 281 280 252 239 292 285 276 277 256 255 268 271 252 266
343 341 337 336 323 34 348 328 315 108 106 306 266 32 17 184 258 337 3 265 219 232 238 213 241 242 271 291 294 287 269 287 275 296 264 309 282 282 273 250 262 248 246 255 253
341 344 338 330 60 319 314 339 351 122 71 350 349 8 353 333 344 6 343 218 332 230 240 228 277 337 313 282 266 279 271 282 285 293 286 153 288 293 259 277 266 266 263 254 258
341 342 342 347 223 347 270 356 334 56 69 329 357 295 320 40 290 342 336 343 322 285 32 260 304 312 274 255 306 267 310 296 281 263 284 142 239 277 11 290 279 279 248 255 254
337 337 340 61 49 242 320 324 57 48 75 334 331 329 359 358 2 298 356 349 334 333 347 248 248 224 217 276 105 288 323 298 309 127 251 204 196 277 216 220 265 269 271 281 295
335 331 315 152 270 55 337 50 43 79 337 321 300 330 310 355 341 4 348 10 17 1 340 315 293 295 58 339 323 346 9 316 304 251 248 214 213 254 263 260 258 272 261 214 285
330 325 237 229 298 353 56 57 70 264 245 254 282 316 9 13 321 333 345 346 31 32 278 337 322 7 339 311 272 279 183 199 272 267 279 330 256 255 231 254 250 237 207 209 275
325 336 327 303 317 66 68 54 177 225 236 274 324 326 291 320 262 356 320 264 67 32 76 316 253 307 300 293 113 311 278 227 273 270 264 228 263 296 262 270 263 185 186 280 296
344 344 317 331 3 55 69 144 211 228 258 159 343 299 291 305 340 7 312 238 181 186 147 280 292 276 332 324 280 186 247 338 318 278 269 244 267 253 279 267 271 16 342 328 327
31 28 296 342 45 45 93 254 296 290 260 181 226 267 252 306 246 260 252 292 203 224 184 229 218 277 322 218 254 258 245 239 218 237 288 298 250 326 13 34 19 348 339 325 304
5 24 309 6 49 38 31 304 284 301 310 276 223 230 233 278 272 245 235 216 219 152 283 208 260 274 273 273 273 245 250 239 245 251 250 279 277 238 267 36 8 332 314 304 308
23 279 323 54 66 347 311 303 277 316 299 321 272 238 234 255 337 224 240 242 247 181 235 168 240 292 298 351 46 14 226 212 240 243 260 263 256 305 334 310 324 300 316 308 303
25 357 329 39 84 100 343 284 314 314 295 353 269 285 350 290 213 271 270 294 266 225 272 230 220 231 259 266 282 282 267 266 266 264 281 259 283 293 303 314 309 313 312 294 304
36 287 208 310 321 329 194 256 304 333 311 318 317 349 291 283 291 243 258 296 289 281 266 177 260 236 251 268 275 273 275 279 273 278 275 319 301 293 294 301 308 300 296 299 298
56 15 357 276 291 312 328 286 284 303 246 287 292 305 272 219 217 286 302 296 239 312 188 158 271 281 286 266 264 270 273 270 283 305 274 278 283 290 330 323 311 302 292 288 287
331 360 101 281 288 333 242 203 303 309 291 260 304 287 279 259 250 276 272 270 236 235 202 234 263 289 285 339 305 297 125 110 296 277 292 288 303 331 316 308 301 293 284 281 278